Location: Red Deer
(52.2681°N, 113.8112°W)
Time: 01:47:43
(UTC-06:00)

BlueWalker 3 - Visible Passes

Search period start: 03 October 2023 00:00
Search period end: 13 October 2023 00:00
Orbit: 491 x 508 km, 53.2° (Epoch: 02 October)

Date Brightness Start Highest point End Pass type
(mag) Time Alt. Az. Time Alt. Az. Time Alt. Az.
03 Oct 3.5 06:01:41 19° SSW 06:01:41 19° SSW 06:03:53 10° S visible
04 Oct 4.3 05:41:47 12° S 05:41:47 12° S 05:42:14 10° S visible
09 Oct 3.9 20:53:14 10° SSW 20:54:31 17° S 20:54:31 17° S visible
10 Oct 3.3 20:31:29 10° SSW 20:34:08 23° SSE 20:34:08 23° SSE visible
10 Oct 4.9 22:08:45 10° WSW 22:08:46 10° WSW 22:08:46 10° WSW visible
11 Oct 3.2 20:09:43 10° SSW 20:12:45 23° SE 20:13:35 21° ESE visible
11 Oct 4.2 21:46:59 10° WSW 21:48:13 20° WSW 21:48:13 20° WSW visible
12 Oct 3.3 19:47:56 10° SSW 19:50:59 23° SE 19:52:56 16° E visible
12 Oct 3.2 21:25:13 10° WSW 21:27:32 35° WSW 21:27:32 35° WSW visible
